Regional Weather Roundup
Issued by NWS

Home | Current Version | Previous Version | Text Only | Print | Product List | Glossary On
Versions: 1 2 3 4 5 6 7 8 9 10 11 12 13 14 15 16 17 18 19 20 21 22 23 24 25 26 27 28 29 30 31 32 33 34 35 36 37 38 39 40 41 42 43 44 45 46 47 48 49 50
000
ASHW40 PHFO 230843
RWRHI

WEATHER ROUNDUP FOR HAWAII
NATIONAL WEATHER SERVICE HONOLULU HI
1000 PM HST WED OCT 22 2014

THIS IS AN AUTOMATED REPORT THAT HAS NOT BEEN QUALITY CONTROLLED.

NOTE..."FAIR" INDICATES FEW OR NO CLOUDS BELOW 12,000 FEET WITH NO
SIGNIFICANT WEATHER AND/OR OBSTRUCTIONS TO VISIBILITY.

* - THESE SITES REPORT LIMITED FIELDS

HIZ001>004-230900-
KAUAI-NIIHAU-

CITY           SKY/WX    TMP DP  RH WIND       PRES   REMARKS
LIHUE APT      PTCLDY    79  73  83 E12       30.03S
PORT ALLEN*      N/A     77 N/A N/A NE7         N/A
POIPU*           N/A     77 N/A N/A NE6         N/A
PRINCEVILLE*     N/A     75 N/A N/A MISG        N/A
KOKOLE POINT*    N/A     75 N/A N/A MISG        N/A
MOLOAA DAIRY*  NOT AVBL
WAIMEA HTS*      N/A     73  70  88 CALM        N/A
PUU OPAE*        N/A     68  66  94 CALM        N/A
PUU LUA*       NOT AVBL
MAKAHA RIDGE*  NOT AVBL
$$

HIZ005>011-230900-
OAHU-

CITY           SKY/WX    TMP DP  RH WIND       PRES   REMARKS
HONOLULU       MOCLDY    76  75  97 N3        30.03S
KALAELOA       PTCLDY    75  72  90 E3        30.04S
KANEOHE MCB    MOCLDY    77  73  87 E3        30.03S
WHEELER FIELD  MOCLDY    73  70  92 CALM      30.05
BELLOWS*         N/A    N/A N/A N/A E12         N/A
KAHUKU*          N/A    N/A N/A N/A E1          N/A
WHEELER*       NOT AVBL
WAIANAE HARBOR NOT AVBL
DILLINGHAM*      N/A     73  73 100 E2          N/A
KAHUKU TRN*      N/A     72  72 100 E3G9        N/A
KAWAILOA*        N/A     72  70  94 NE3         N/A
KII*             N/A     75  73  94 SE3G14      N/A
MAKUA RANGE*     N/A     75  72  88 E6          N/A
OAHU FOREST NW   N/A     70  70 100 N13G22      N/A
SCHOFIELD BRK*   N/A     72  70  94 MISG        N/A
SCHOFIELD S*   NOT AVBL
WAIANAE VLY*     N/A     72  70  94 NW3         N/A
KUAOKALA*        N/A     75  68  78 CALM        N/A
HONOULIUULI*   NOT AVBL
MOKUOLOE IS*   NOT AVBL
PALEHUA*         N/A     82  73  74 CALM        N/A
WAIAWA PHB*    NOT AVBL
$$

HIZ012>013-230900-
MOLOKAI-

CITY           SKY/WX    TMP DP  RH WIND       PRES   REMARKS
MOLOKAI AIRPT  PTCLDY    74  74 100 CALM      30.04S
KALAUPAPA      NOT AVBL
MAKAPULAPAI*     N/A     77  72  83 E6G15       N/A
MOLOKAI 1*       N/A     66  66 100 N2          N/A
PUU ALII*        N/A     63  63  99 SE2G9       N/A
$$

HIZ016-230900-
KAHOOLAWE-

CITY           SKY/WX    TMP DP  RH WIND       PRES   REMARKS
KAHOOLAWE*       N/A     72 N/A N/A E9          N/A
HAKIOAWA*      NOT AVBL
HONOKANAIA*      N/A     77  72  85 N6G17     30.04S
KANELOA*         N/A     75  72  88 E14G23    29.26R
KEALIALALO*    NOT AVBL
LUA MAKIKA*    NOT AVBL
$$

HIZ014>015-230900-
LANAI-

CITY           SKY/WX    TMP DP  RH WIND       PRES   REMARKS
LANAI CITY     NOT AVBL
LANAI 1*         N/A     72  72 100 E6          N/A
$$

HIZ017>028-230900-
MAUI-

CITY           SKY/WX    TMP DP  RH WIND       PRES   REMARKS
KAHULUI        CLEAR     74  72  93 CALM      30.03F
KAPALUA-W MAUI NOT AVBL
HANA AIRPORT   CLOUDY    73  72  94 SE3       30.06F
HANA*            N/A     73 N/A N/A S3          N/A
HALEAKALA SUMM   N/A     45  43  93 NE20        N/A
MAALAEA BAY*   NOT AVBL
HALEAKALA*     NOT AVBL
KAUPO GAP*       N/A     61  61 100 CALM        N/A
KULA 1*          N/A     55  54  96 E3          N/A
$$

HIZ023>026-230900-
BIG ISLAND OF HAWAII COAST AND LOWER SLOPES-

CITY           SKY/WX    TMP DP  RH WIND       PRES   REMARKS
KAILUA KONA    CLEAR     80  71  74 SE9       30.00S
HILO           CLOUDY    76  68  76 SW6       30.04S
HONOKAA*       NOT AVBL
KAWAIHAE MWT*    N/A     82 N/A N/A N5          N/A
KAWAIHAE*        N/A     81 N/A N/A NE5         N/A
SOUTH POINT*     N/A     70 N/A N/A N7          N/A
UPOLU AIRPORT*   N/A    N/A N/A N/A E13         N/A
KAMUELA*       CLOUDY    66  63  88 NE15      30.14S
HAKALAU*         N/A     56  55  97 NW1         N/A
KALOKO-HONOKO*   N/A     79  70  73 E3        29.99S
PALI 2*          N/A     66 -11   4 E5G15       N/A
KEALAKOMO*       N/A     79  66  65 N9G20       N/A
KAUPULEHU*       N/A     72  64  78 S8          N/A
KAPAPALA*        N/A     67  65  95 CALM        N/A
LOWER KAHUKU*  NOT AVBL
PUHE CS*       NOT AVBL
PUHO CS*         N/A     76  68  77 E2          N/A
PTA KEAMUKU*     N/A     64  61  88 SE5         N/A
WAIKOLOA*        N/A     75  64  69 NE13G22     N/A
$$

HIZ027>028-230900-
BIG ISLAND OF HAWAII INTERIOR AND SUMMMITS-

CITY           SKY/WX    TMP DP  RH WIND       PRES   REMARKS
BRADSHAW FIELD PTCLDY    59  55  88 SE3       30.39F
MK VISITOR CEN NOT AVBL
MAUNA KEA*       N/A     34  16  47 CALM        N/A
MAUNA LOA*       N/A     45  34  65 MISG        N/A
MAUNA LOA 1*     N/A     45  36  70 MISG        N/A
PTA KIPUKA*      N/A     55  55 100 CALM        N/A
PTA RANGE 17*    N/A     59  59 100 E3          N/A
PTA WEST*        N/A     61  59  94 SE7         N/A
NENE CABIN*      N/A     55  55 100 NE3G9       N/A
AHUMOA*          N/A     54  54  99 SE6         N/A
PTA PORTABLE*  NOT AVBL
PUU MALI*      NOT AVBL
$$

HIC003-230900-
NORTHWEST ISLANDS-

CITY           SKY/WX    TMP DP  RH WIND       PRES   REMARKS
MIDWAY ISLAND  CLEAR     81  77  89 S7        29.95R
MIDWAY NOS*    NOT AVBL
FRENCH FRIGATE NOT AVBL
$$

PHZ110>124-180-230900-
BUOY REPORTS

STATION/POSITION TIME  TEMP    WIND        PRES    WAVE   SWELL
                       AIR SEA DIR/SP/G            HT/PER HT/DIR
                 (UTC) (F)     (DEG/KT/KT) (MB)    (FT/S) (FT/D)
BUOY 51001       NOT AVBL
BUOY 51101       NOT AVBL
BUOY 51100       0800   79 80   90/ 14/ 16 1018.1R
BUOY 51003       0800   81 82   90/ 12/ 16 1015.8S   5/11   5
BUOY 51004       0731   79 81   60/ 12/ 14 1015.8F   6/11   5
BARBERS PT BUOY  NOT AVBL
WAIMEA BAY BUOY  0800      82                N/A     4/11   2/350
KAILUA BAY BUOY  0800      82                N/A     5/10   2/350
LANAI BUOY       0800      82                N/A     3/14   2/200
BARBERS PT 2     0800      82                N/A     3/15   2/200
PAUWELA MAUI     0800      81                N/A     5/ 8   2/350
HILO             0800      81                N/A     6/ 8   2
KANEOHE BAY BUOY NOT AVBL
HANALEI KAUAI    NOT AVBL
KAHULUI HARBOR   0800   78 81   10/ 10/ 13 1016.6F
HONOLULU HARBOR  0800   77     350/  1/  2 1017.1F
KILO NALU        NOT AVBL
HILO HARBOR      0800   76     180/  2/  4 1016.7R
MOKUOLOE         0800   77     110/  6/  9   N/A
NAWILIWILI       0800      82                N/A
WHOTS BUOY       NOT AVBL
BUOY 51028       NOT AVBL
$$

......................KEY........................................
  SKY/WX - SKY CONDITIONS/PRESENT WEATHER
  TMP    - TEMPERATURE IN FAHRENHEIT
  DWPT   - DEWPOINT IN FAHRENHEIT
  RH     - RELATIVE HUMIDITY IN PERCENT
  WIND   - DIRECTION AND SPEED /MPH FOR ISLANDS...KTS FOR BUOYS/
  PRES   - MEAN SEA LEVEL PRESSURE IN INCHES OF HG
  VSB    - VISIBILITY IN MILES
  HX     - HEAT INDEX
  WCI    - WIND CHILL INDEX
  VRB    - VARIABLE WIND DIRECTION
  N/A    - NOT AVAILABLE



USA.gov is the U.S. government's official web portal to all federal, state and local government web resources and services.